P/2019 LM4 ( Palomar )

Japanese version
Home page
Updated on October 6, 2020

---------------------------------------------------------------------

* Profile

Discovery Date June 4, 2019
Magnitude 19.0 mag
Discoverer Q.-Z. Ye (Palomar Mountain), Z. T. F. Collaboration

* Pictures

* Orbital Elements

Epoch 2019 June 6.0 TT = JDT 2458640.5
T 2019 June 18.22448 TT                                 Rudenko
q   2.3713239            (2000.0)            P               Q
n   0.07205302     Peri.   68.35861     -0.60626915     -0.55763133
a   5.7196299      Node    72.85839     +0.30627189     -0.82169601
e   0.5854061      Incl.   36.39536     +0.73391774     -0.11774110
P  13.7
From 224 observations 2019 June 4-2020 June 16, mean residual 0".5.

* Magnitudes Graph

        m1 =  12.5 + 5 log d +  10.0 log r           [   ,328]  (             - 2020 May  11)
        m1 = -46   + 5 log d + 100   log r(t + 100)  [328,400]  (2020 May  11 - 2020 July 22)
        m1 =  12.5 + 5 log d +  10.0 log r           [400,   ]  (2020 July 22 -             )

---------------------------------------------------------------------

The orbital elements are published on M.P.E.C. 2020-P19.
The magnitudes graphs are made with Comet for Windows.

---------------------------------------------------------------------

Copyright(C) Seiichi Yoshida (comet@aerith.net). All rights reserved.